Location: St Andrew
(49.4460°N, 2.5750°W)
Time: 04:31:18
(UTC+00:00)

Daily predictions for brighter satellites

Satellite Brightness Start Highest point End
(mag) Time Altitude Azimuth Time Altitude Azimuth Time Altitude Azimuth
ADEOS II 4.5 02:52:47 10° NE 02:56:00 16° E 02:56:53 16° E
Resurs 1-4 Rocket 4.1 03:12:49 10° N 03:14:37 22° N 03:14:37 22° N
CZ-2D R/B 4.0 03:13:10 10° N 03:15:08 23° N 03:15:08 23° N
Cosmos 2278 Rocket 4.2 03:23:39 20° N 03:23:39 20° N 03:25:55 10° NNE
Cosmos 2369 Rocket 3.4 03:23:39 38° E 03:23:39 38° E 03:28:06 10° NE
Cosmos 1867 4.4 03:39:00 46° ENE 03:39:00 46° ENE 03:43:12 10° NE
MOS 1 Rocket 4.4 03:34:56 10° NNE 03:39:35 51° ENE 03:39:35 51° ENE
Cosmos 2056 Rocket 4.2 03:58:33 47° ESE 03:58:55 48° ESE 04:03:55 10° NNE
ATLAS 5 CENTAUR R/B 2.8 03:59:52 41° ESE 03:59:52 41° ESE 04:04:41 10° NE
Iridium 4 Rocket 4.4 03:54:29 10° N 03:58:24 46° NNW 03:58:24 46° NNW
USA 234 4.3 03:55:33 10° ENE 04:01:30 36° SE 04:03:57 28° S
Cosmos 2266 Rocket 3.8 03:57:03 10° N 04:03:10 87° NW 04:03:10 87° NW
ADEOS Rocket 3.5 03:56:46 10° N 04:02:38 51° NW 04:02:38 51° NW
Okean O Rocket 2.8 04:02:30 10° NNE 04:05:13 37° NNE 04:05:13 37° NNE
Cosmos 1943 Rocket 3.0 04:05:28 35° SSE 04:07:06 45° ESE 04:12:22 10° NE
CZ-4B R/B 3.5 04:03:57 10° NNE 04:09:32 66° ESE 04:11:05 47° SSE
Cosmos 2263 4.4 04:09:08 59° SSE 04:09:50 65° ESE 04:15:25 10° NNE
Lacrosse 4 Rocket 4.0 04:15:25 11° N 04:15:25 11° N 04:15:51 10° N
ERS-2 3.3 04:18:00 10° NNE 04:20:53 42° ENE 04:20:53 42° ENE
Lacrosse 5 2.7 04:21:31 39° SSE 04:22:21 42° SE 04:27:08 10° ENE
Cosmos 1933 4.1 04:24:05 48° NNE 04:24:05 48° NNE 04:27:08 10° NNE
Cosmos 1371 Rocket 3.8 04:27:11 80° W 04:27:15 80° WNW 04:32:28 10° NNE
Lacrosse 5 rocket 2.5 04:29:48 32° NNE 04:29:48 32° NNE 04:32:51 10° E
Thor Agena Rocket 3.8 04:27:49 10° SSE 04:32:59 67° ENE 04:38:06 10° N
CZ-4B R/B 4.2 04:32:15 10° N 04:34:32 30° N 04:34:32 30° N
ADEOS II 1.9 04:31:06 10° NNE 04:36:24 82° WNW 04:37:51 50° SSW
BREEZE M DEB (TANK) 4.5 04:29:23 33° WSW 04:37:04 76° SSE 04:42:26 10° ENE
Cosmos 1452 Rocket 4.4 04:35:18 11° S 04:40:13 47° ESE 04:45:17 10° NNE
PAYLOAD B 4.2 04:38:56 10° N 04:44:26 65° WNW 04:45:54 47° SW
Cosmos 2297 Rocket 4.2 04:40:07 10° NNW 04:44:47 25° NE 04:49:26 10° E
Okean 1-7 4.2 04:42:45 10° SSE 04:46:47 42° E 04:50:50 10° NNE
ATLAS CENTAUR R/B 4.1 04:46:55 32° SW 04:47:16 32° SW 04:58:18 10° SSE
Cosmos 1244 Rocket 4.4 04:41:27 10° N 04:47:45 85° W 04:53:55 10° S
Cosmos 1908 Rocket 3.7 04:46:07 10° NNW 04:55:24 - S 04:49:57 55° WNW
PSLV R/B 3.6 04:46:32 10° N 04:50:21 57° NW 04:50:21 57° NW
Cosmos 407 Rocket 4.1 04:52:45 38° SW 04:52:45 38° SW 04:56:27 10° S
Sich 1 Rocket 4.0 04:47:08 10° NNW 04:57:37 - S 04:50:40 47° NW
CZ-4B DEB 4.2 04:48:58 10° N 04:54:25 59° WNW 04:56:27 37° SW
Cosmos 921 Rocket 3.9 04:56:17 32° NW 04:56:17 32° NW 04:59:23 10° N
CZ-4C R/B 3.2 04:51:05 11° S 04:55:51 43° ESE 05:01:31 10° NE
Cosmos 676 Rocket 4.0 04:50:56 10° NNW 04:56:09 58° WSW 05:01:21 10° S
Cosmos 1782 Rocket 3.5 04:51:43 10° N 04:56:13 88° W 05:00:40 10° S
Resurs 1-4 Rocket 4.2 04:54:31 10° NNW 04:55:43 12° NW 04:55:43 12° NW
CZ-2D R/B 4.1 04:55:02 10° NNW 04:56:28 13° NW 04:56:28 13° NW
Cosmos 2219 3.2 04:53:48 10° NNW 04:59:33 87° ENE 05:05:12 10° SSE
Okean-O 2.6 04:58:06 10° NNE 05:02:34 84° ESE 05:07:01 10° SSW
Cosmos 2227 Rocket 3.5 04:59:50 10° NNW 05:05:10 39° NE 05:10:28 10° ESE
Abrixas 2.8 05:07:00 58° SE 05:07:00 58° SE 05:09:36 10° E
Cosmos 2369 Rocket 2.7 05:05:28 35° W 05:06:52 41° NW 05:12:14 10° NNE
Cosmos 1140 Rocket 3.4 05:05:07 10° NNW 05:10:20 69° WSW 05:15:31 10° SSE
Cosmos 1656 Rocket 4.0 05:06:22 10° SSW 05:12:00 68° ESE 05:17:40 10° NNE
SKYMED 2 3.6 05:08:04 10° SSE 05:12:23 79° ENE 05:16:46 10° NNW
Cosmos 972 4.3 05:09:37 20° SSW 05:13:06 74° WNW 05:18:27 10° NNE
Feng Yun 1-1 Rocket 4.3 05:11:33 10° NNE 05:17:26 83° WNW 05:23:22 10° SSW
Cosmos 614 Rocket 3.8 05:12:29 10° NNW 05:17:35 77° WSW 05:22:41 10° SSE
Meteor 1-31 Rocket 2.7 05:13:41 10° N 05:17:36 67° WNW 05:20:21 18° SSW
S3M 4.1 05:12:17 10° S 05:18:38 80° E 05:24:55 10° NNE
Okean 2 Rocket 2.9 05:16:50 10° NNW 05:21:13 67° W 05:25:34 10° S
Cosmos 1867 4.3 05:19:40 28° WNW 05:21:42 37° NW 05:26:46 10° NNE
Cosmos 1553 Rocket 4.0 05:19:48 10° S 05:26:00 88° W 05:32:23 10° N
Tiangong 1 3.1 05:25:47 15° S 05:26:42 17° SSE 05:28:44 10° ESE
Meteor PRIRODA 4.3 05:27:48 10° N 05:31:09 33° WNW 05:31:54 30° W
SJ-6F 4.3 05:28:21 10° N 05:32:31 70° WNW 05:36:36 10° SSW
Cosmos 1703 Rocket 3.9 05:31:11 13° SW 05:34:45 43° WNW 05:38:58 10° N
Cosmos 1850 Rocket 4.0 05:33:13 10° NNW 05:38:31 62° WSW 05:43:44 10° S
Cosmos 2151 Rocket 3.6 05:36:00 10° N 05:40:33 86° W 05:45:02 10° S
Cosmos 2056 Rocket 4.4 05:38:55 21° W 05:41:17 30° NW 05:45:53 10° N
Okean O Rocket 3.3 05:40:10 10° NNW 05:42:41 15° WNW 05:42:41 15° WNW
Meteor 2-10 Rocket 3.7 05:38:19 10° SW 05:43:07 45° WNW 05:48:02 10° N
ATLAS 5 CENTAUR R/B 2.4 05:41:26 20° W 05:44:30 43° NW 05:49:41 10° NE
USA 234 3.3 05:38:24 10° ENE 05:44:58 85° NNW 05:51:19 11° WSW
Ariane Rocket 3.6 05:44:35 10° NNE 05:49:39 62° ESE 05:54:41 10° S
CZ-4B R/B 4.3 05:45:14 10° N 05:49:41 25° WNW 05:52:59 15° WSW
Cosmos 1943 Rocket 2.8 05:47:02 16° WSW 05:50:58 37° NW 05:56:08 10° NNE
IDEFIX/ARIANE 42P 4.2 05:46:21 10° NNE 05:51:14 38° E 05:56:03 10° SSE
NOAA 6 4.1 05:47:15 10° N 05:52:22 61° WNW 05:57:25 10° SSW
Cosmos 1709 Rocket 4.1 05:46:27 10° N 05:52:35 79° E 05:58:43 10° SSE
ERS-2 3.8 05:52:36 10° NNW 05:55:02 17° WNW 05:55:40 16° WNW
Meteor 1-20 Rocket 4.4 05:49:58 10° NNW 05:55:28 48° W 06:00:50 10° SSW
Cosmos 1420 Rocket 3.9 05:51:50 10° SSW 05:57:00 69° WNW 06:02:12 10° NNE
COSMO-SKYMED 1 3.1 05:56:36 10° SSW 06:00:35 35° W 06:04:36 10° NNW
Cosmos 1633 2.5 05:57:48 10° N 06:01:29 86° W 06:05:06 10° S
Cosmos 1536 3.9 05:57:41 10° N 06:01:36 50° ENE 06:05:30 10° SSE
Lacrosse 5 2.1 06:00:45 13° WSW 06:05:16 58° NNW 06:10:18 10° NE
Cosmos 2082 3.8 05:59:47 10° NNW 06:05:31 84° ENE 06:11:10 10° SSE
CSL-04 Rocket 4.0 06:00:39 10° NNE 06:06:02 74° ESE 06:11:28 10° S
Cosmos 2221 Rocket 4.5 06:02:38 10° SW 06:06:36 29° WNW 06:10:35 10° N
Lacrosse 5 rocket 1.0 06:05:31 11° WNW 06:08:59 69° SW 06:12:34 10° SE
Cosmos 2315 Rocket 4.3 06:03:36 10° S 06:09:57 76° E 06:16:19 10° NNE
Cosmos 1745 Rocket 4.4 06:05:10 10° NNW 06:10:49 39° W 06:16:26 10° SSW
ATLAS 3B R/B 3.3 06:07:38 10° SSW 06:15:07 68° SE 06:22:17 10° NE
ADEOS II 3.7 06:12:17 10° NNW 06:15:21 16° NW 06:18:25 10° W
Meteor 1-28 Rocket 4.1 06:13:30 10° SSW 06:16:45 28° W 06:20:03 10° NW
Helios 1B rocket 3.7 06:16:16 10° SE 06:20:11 45° ENE 06:24:09 10° N
Cosmos 1452 Rocket 4.3 06:17:52 10° WSW 06:22:33 31° NW 06:27:16 10° N
Okean 1-7 4.2 06:21:17 10° WSW 06:24:36 21° WNW 06:27:55 10° NNW
YAOGAN 1 3.8 06:24:18 10° NNE 06:28:31 48° E 06:32:42 10° S
Cosmos 2297 Rocket 2.2 06:23:47 10° NNW 06:29:27 76° WSW 06:35:04 10° SSE
Cosmos 1110 Rocket 4.2 06:24:45 10° SSW 06:29:54 77° ESE 06:35:06 10° NNE
Meteor 2-6 Rocket 4.3 06:25:54 10° SSW 06:31:09 54° WNW 06:36:30 10° N
